[[{"header":{"parameterUnit":"m.s-1","parameterCategory":2,"la1":30.2991,"la2":30.254,"lo1":-89.0895,"lo2":-89.0444,"dy":0.0017,"dx":0.0017,"nx":28,"ny":28,"refTime":"2024-07-22T21:00:00:Z","depth":"0","parameterNumber":2,"parameterNumberName":"U-component_of_CURRENTS"},"data":[0,0,0,0,0,0,0,0,0,0,0,0,0,0,0,0,0,0,0,0,0,0,0,0,0,0,0,0,0,0,0,0,0,0,0,0,0,0,0,0,0,0,0,0,0,0,0,0,0,0,0,0,0,0,0,0,0,0,0.3059,0.3059,0,0.304,0.3039,0.3039,0.301,0.3009,0.3009,0.3009,0.2969,0.2969,0.2968,0,0,0,0,0,0,0,0,0,0,0,0,0,0.3092,0.3092,0.3059,0.3059,0.3059,0.304,0.3039,0.3039,0.301,0.3009,0.3009,0.3009,0.297,0.2969,0.2968,0,0,0,0,0,0,0,0,0,0,0,0,0,0.3074,0.3091,0.3059,0.3044,0.3042,0.304,0.3039,0.3039,0.301,0.3009,0.3009,0.3008,0.297,0.2969,0.2968,0.2971,0,0,0.2964,0.2964,0,0,0,0,0,0,0,0,0.3075,0.3073,0.3046,0.3045,0.3043,0.3028,0.3037,0.3016,0.301,0.302,0.3009,0.3008,0.2989,0.2986,0.2981,0.2969,0.2967,0.2964,0.2963,0.2963,0.2963,0,0,0,0,0,0,0,0.3076,0.3073,0.3049,0.3046,0.3044,0.3045,0.3042,0.3033,0.3006,0.3019,0.3018,0.3019,0.2988,0.2982,0.298,0.2967,0.2964,0.2963,0.2962,0.2962,0.3033,0.3036,0,0,0,0,0,0,0.3082,0.3075,0.305,0.3049,0.3061,0.3045,0.3041,0.3032,0.3006,0.3002,0.3019,0.3017,0.2984,0.2981,0.2978,0.3083,0.2963,0.2962,0.2961,0.3031,0.3034,0.3036,0,0,0,0,0,0,0.3083,0.308,0.3051,0.3064,0.306,0.3045,0.3035,0.3032,0.303,0.3007,0.3002,0.3022,0.2984,0.298,0.2985,0.3078,0.2961,0.296,0.3028,0.3032,0.3035,0.3227,0,0,0,0,0,0,0.3084,0.308,0.3076,0.3064,0.306,0.3064,0.3036,0.3032,0.3033,0.303,0.3007,0.3003,0.2983,0.2987,0.2984,0.3074,0.296,0.3024,0.3029,0.3034,0.3218,0.3237,0.3254,0,0,0,0,0,0.3085,0.3086,0.3076,0.3073,0.3055,0.3065,0.3064,0.305,0.3034,0.3044,0.3028,0.3004,0.3016,0.2987,0.2983,0.3076,0.3022,0.3028,0.3033,0.321,0.3233,0.3254,0,0,0,0,0,0,0.3093,0.3083,0.3072,0.3067,0.3072,0.3061,0.3071,0.3056,0.3051,0.3053,0.3018,0.3014,0.307,0.3026,0.2995,0.3108,0.3023,0.3028,0.3158,0.318,0.3198,0.3226,0.2959,0,0,0,0,0,0.3095,0.3097,0.3089,0.3089,0.3095,0.3083,0.3085,0.308,0.3074,0.3071,0.3059,0.3057,0.309,0.3093,0.3103,0.3141,0.3135,0.32,0.3219,0.3234,0.3254,0.3345,0.3375,0.3055,0.3055,0.3055,0,0,0.3102,0.3094,0.3097,0.3092,0.3095,0.3136,0.3083,0.3101,0.3154,0.3069,0.3129,0.3119,0.3113,0.3182,0.3202,0.3155,0.3317,0.3242,0.3256,0.3267,0.3355,0.3386,0.3414,0.3059,0.3058,0.3058,0,0,0.3126,0.3112,0.3128,0.3147,0.3159,0.3171,0.318,0.3184,0.3205,0.3243,0.323,0.3264,0.3272,0.3314,0.3331,0.3444,0.3416,0.3449,0.3562,0.3651,0.3679,0.3704,0.3719,0.3743,0.3451,0.3452,0.3452,0,0.3128,0.3156,0.3137,0.3171,0.3208,0.3197,0.3252,0.3284,0.3292,0.333,0.3286,0.3367,0.3353,0.3479,0.3523,0.3495,0.3508,0.3486,0.368,0.3704,0.3726,0.3735,0.376,0.3462,0.3461,0.346,0.3459,0,0.3178,0.3211,0.3232,0.3282,0.3317,0.3365,0.3413,0.3455,0.3472,0.3501,0.3603,0.3592,0.3634,0.3658,0.3624,0.3789,0.3735,0.3703,0.3634,0.3771,0.377,0.3792,0.3476,0.3472,0.3469,0.3467,0,0,0.3148,0.3247,0.3254,0.3316,0.3388,0.3426,0.3536,0.363,0.3697,0.3742,0.3836,0.3917,0.3896,0.3913,0.3897,0.3971,0.4125,0.3908,0.3908,0.3937,0.4286,0.4058,0.4059,0.414,0.4146,0.415,0.4217,0,0.3195,0.3305,0.3335,0.3465,0.3543,0.3588,0.3686,0.3773,0.3825,0.3909,0.3969,0.4036,0.4005,0.4014,0.4107,0.4117,0.4195,0.4106,0.4134,0.4134,0.393,0.4082,0.3803,0.3823,0.4238,0.4241,0.4244,0,0.3235,0.3315,0.3451,0.3589,0.3619,0.3687,0.3834,0.3911,0.4037,0.4071,0.4168,0.4183,0.4316,0.4241,0.4395,0.4342,0.4341,0.4342,0.4344,0.4082,0.395,0.3755,0.3847,0.3734,0.4277,0.4274,0.4272,0,0.3266,0.3393,0.3517,0.3568,0.3716,0.3776,0.3841,0.396,0.4032,0.4162,0.4211,0.4359,0.4408,0.4492,0.4485,0.4462,0.4611,0.4568,0.4372,0.4352,0.4091,0.4038,0.4087,0.4697,0.4697,0.4697,0.4697,0,0.3322,0.3413,0.3536,0.3615,0.3737,0.3808,0.3921,0.3998,0.4103,0.4193,0.4283,0.4368,0.448,0.4555,0.4557,0.452,0.4678,0.4423,0.4381,0.414,0.4094,0.3958,0.3933,0.4699,0.4699,0.4698,0.4698,0,0.3345,0.3429,0.3575,0.3728,0.3763,0.3844,0.3947,0.4017,0.411,0.4225,0.4269,0.4418,0.4501,0.4558,0.4655,0.4567,0.4409,0.4507,0.4169,0.4086,0.3738,0.3732,0.3611,0.3532,0.431,0.4305,0.4301,0,0.3366,0.3456,0.3641,0.3695,0.3756,0.3858,0.3917,0.4018,0.4087,0.4241,0.4304,0.4412,0.4446,0.4476,0.4365,0.4307,0.4256,0.3985,0.3889,0.3707,0.3675,0.3586,0.3526,0.3621,0.3612,0.3605,0.3598,0,0.3424,0.3495,0.3621,0.3725,0.3797,0.3867,0.3953,0.4009,0.4118,0.4176,0.4236,0.4255,0.4251,0.4044,0.3941,0.3878,0.3742,0.382,0.3766,0.3254,0.3033,0.2936,0.3556,0.353,0.3537,0.3542,0.3546,0.3549,0.3455,0.3537,0.3675,0.3744,0.3804,0.3825,0.3818,0.3892,0.393,0.3921,0.4066,0.3929,0.3756,0.3553,0.3486,0.3124,0.3268,0.295,0.2994,0.2947,0.2761,0.3181,0.3016,0.302,0.3023,0.3026,0.3028,0,0.347,0.3558,0.3654,0.372,0.3684,0.3736,0.3789,0.3709,0.3649,0.3649,0.3602,0.3277,0.302,0.2872,0.2502,0.2316,0.2269,0.225,0.2119,0.2137,0.2614,0.247,0.2014,0.2015,0.2015,0.2015,0.2015,0.2015,0.3483,0.3573,0.3607,0.3547,0.3541,0.3417,0.3384,0.3297,0.3235,0.2951,0.2695,0.2628,0.2452,0.2134,0.1833,0.1785,0.1728,0.154,0.1713,0.2079,0.215,0.2217,0.2079,0.1549,0.1548,0.1083,0.108,0.1077]},{"header":{"parameterUnit":"m.s-1","parameterCategory":2,"la1":30.2991,"la2":30.254,"lo1":-89.0895,"lo2":-89.0444,"dy":0.0017,"dx":0.0017,"nx":28,"ny":28,"refTime":"2024-07-22T21:00:00:Z","depth":"0","parameterNumber":3,"parameterNumberName":"V-component_of_CURRENTS"},"data":[0,0,0,0,0,0,0,0,0,0,0,0,0,0,0,0,0,0,0,0,0,0,0,0,0,0,0,0,0,0,0,0,0,0,0,0,0,0,0,0,0,0,0,0,0,0,0,0,0,0,0,0,0,0,0,0,0,0,0.0085,0.0086,0,0.0092,0.0092,0.0092,0.0085,0.0084,0.0084,0.0084,0.0058,0.0057,0.0057,0,0,0,0,0,0,0,0,0,0,0,0,0,0.0067,0.0067,0.0085,0.0086,0.0086,0.0092,0.0092,0.0092,0.0085,0.0084,0.0084,0.0084,0.0058,0.0057,0.0057,0,0,0,0,0,0,0,0,0,0,0,0,0,0.0075,0.0067,0.0085,0.0082,0.0082,0.0092,0.0092,0.0092,0.0085,0.0084,0.0084,0.0083,0.0058,0.0057,0.0057,0.0062,0,0,0.0055,0.0055,0,0,0,0,0,0,0,0,0.0074,0.0075,0.0083,0.0083,0.0082,0.0087,0.0076,0.008,0.0085,0.0084,0.0084,0.0083,0.0065,0.0063,0.0066,0.0061,0.006,0.0055,0.0054,0.0054,0.0054,0,0,0,0,0,0,0,0.0074,0.0075,0.0088,0.0083,0.0083,0.0081,0.0082,0.0077,0.0076,0.0084,0.0083,0.0084,0.0064,0.0067,0.0066,0.0059,0.0055,0.0054,0.0054,0.0054,0.005,0.005,0,0,0,0,0,0,0.0073,0.0075,0.0088,0.0088,0.0077,0.0082,0.0082,0.0086,0.0077,0.0075,0.0084,0.0084,0.0068,0.0066,0.0065,0.0054,0.0054,0.0054,0.0053,0.005,0.005,0.005,0,0,0,0,0,0,0.0073,0.0074,0.0088,0.0081,0.0083,0.0082,0.0087,0.0086,0.0089,0.0078,0.0075,0.0087,0.0068,0.0065,0.0059,0.0053,0.0053,0.0053,0.0049,0.005,0.005,0.0043,0,0,0,0,0,0,0.0072,0.0074,0.0077,0.0081,0.0083,0.0098,0.0087,0.0087,0.009,0.0089,0.0079,0.0077,0.0067,0.006,0.0059,0.0053,0.0052,0.0049,0.0049,0.005,0.0043,0.0043,0.0044,0,0,0,0,0,0.0072,0.0079,0.0077,0.0079,0.0087,0.0098,0.0099,0.0097,0.0091,0.0097,0.0085,0.0077,0.0062,0.006,0.0058,0.0052,0.0049,0.0049,0.005,0.0043,0.0043,0.0044,0,0,0,0,0,0,0.0071,0.0079,0.0077,0.0086,0.0093,0.0097,0.0103,0.01,0.0097,0.0093,0.008,0.0076,0.0068,0.0066,0.0064,0.0054,0.0055,0.0055,0.005,0.005,0.0051,0.0078,0.0052,0,0,0,0,0,0.0073,0.0081,0.0087,0.0094,0.01,0.0101,0.0105,0.0103,0.0101,0.01,0.0092,0.0082,0.0071,0.0065,0.0059,0.0055,0.0098,0.0051,0.0051,0.0051,0.0074,0.0158,0.0168,0.0052,0.0052,0.0052,0,0,0.0073,0.0079,0.0082,0.0094,0.01,0.0102,0.0103,0.0111,0.0104,0.0097,0.0088,0.0083,0.007,0.0062,0.0059,0.0058,0.01,0.0052,0.0052,0.0075,0.016,0.0171,0.0182,0.0053,0.0053,0.0052,0,0,0.008,0.0086,0.0096,0.0101,0.011,0.0108,0.0111,0.0116,0.0112,0.0107,0.0095,0.0098,0.0078,0.0075,0.0067,0.0071,0.01,0.0057,0.0079,0.0159,0.017,0.018,0.0223,0.0238,0.0057,0.0057,0.0057,0,0.008,0.0086,0.0101,0.0108,0.0105,0.011,0.011,0.0109,0.0108,0.0117,0.0104,0.0111,0.0089,0.0096,0.0084,0.0072,0.0116,0.0073,0.0162,0.0173,0.0184,0.0226,0.0242,0.0056,0.0056,0.0056,0.0056,0,0.0096,0.0092,0.0099,0.0104,0.0109,0.0109,0.0109,0.0115,0.0109,0.0116,0.0134,0.0124,0.0143,0.0117,0.0091,0.0144,0.0147,0.0153,0.0164,0.0195,0.0237,0.0253,0.0056,0.0056,0.0056,0.0056,0,0,0.011,0.0107,0.0109,0.0107,0.0101,0.0113,0.0105,0.0117,0.0151,0.0141,0.0193,0.015,0.018,0.0175,0.016,0.0204,0.0283,0.0205,0.0209,0.0253,0.0448,0.0388,0.0401,0.0313,0.0317,0.0319,0.0437,0,0.0111,0.0112,0.0112,0.0109,0.0106,0.0108,0.0117,0.0132,0.0154,0.0212,0.0214,0.0258,0.0191,0.0222,0.0251,0.0299,0.0332,0.025,0.0408,0.0412,0.0361,0.042,0.0416,0.0517,0.0453,0.0456,0.0458,0,0.0127,0.0119,0.0108,0.0117,0.0123,0.0128,0.0172,0.0185,0.0253,0.0282,0.033,0.036,0.0411,0.0367,0.0462,0.0419,0.0429,0.0449,0.0455,0.0423,0.0385,0.0481,0.055,0.0478,0.0485,0.0483,0.0481,0,0.0132,0.0125,0.0112,0.0108,0.0117,0.0131,0.0153,0.0211,0.0269,0.0355,0.044,0.0487,0.0568,0.0593,0.0604,0.0561,0.0725,0.0679,0.0626,0.062,0.0661,0.0653,0.069,0.0752,0.0752,0.0752,0.0751,0,0.0131,0.0129,0.0118,0.0112,0.0149,0.0151,0.0231,0.0265,0.0366,0.0488,0.0495,0.0623,0.0641,0.0723,0.0686,0.072,0.0797,0.0655,0.0664,0.0651,0.0641,0.0613,0.0567,0.0756,0.0755,0.0754,0.0754,0,0.0146,0.0125,0.013,0.0134,0.015,0.0188,0.0292,0.0381,0.0445,0.0616,0.0661,0.078,0.0894,0.0879,0.0957,0.0854,0.0835,0.0845,0.08,0.0799,0.0636,0.0589,0.0667,0.0651,0.0818,0.0817,0.0817,0,0.0155,0.0147,0.0163,0.0205,0.0212,0.0274,0.0354,0.0418,0.0529,0.0728,0.0837,0.0982,0.112,0.1168,0.1048,0.0987,0.0893,0.0871,0.0767,0.0649,0.0606,0.0572,0.055,0.0816,0.0815,0.0815,0.0815,0,0.0187,0.019,0.0207,0.0283,0.0355,0.0442,0.0549,0.0638,0.076,0.0912,0.114,0.1266,0.1307,0.1275,0.1126,0.1047,0.0816,0.0857,0.0791,0.0655,0.0576,0.0557,0.0682,0.0812,0.0812,0.0812,0.0812,0.0812,0.0241,0.0277,0.0319,0.0396,0.049,0.0617,0.0708,0.0844,0.1027,0.1271,0.1359,0.1559,0.1422,0.1251,0.1122,0.0816,0.083,0.0696,0.0665,0.0653,0.0589,0.0668,0.076,0.076,0.076,0.076,0.076,0,0.033,0.0372,0.0449,0.0553,0.0679,0.0695,0.0861,0.0969,0.1191,0.1424,0.1624,0.1646,0.1483,0.1245,0.0843,0.0649,0.0592,0.0549,0.0523,0.0522,0.0659,0.0605,0.0601,0.0601,0.0601,0.0601,0.0601,0.0602,0.0393,0.048,0.0509,0.0706,0.0788,0.0944,0.1034,0.12,0.1361,0.1619,0.1731,0.1804,0.1583,0.0966,0.0581,0.0505,0.0408,0.0371,0.0337,0.0422,0.0434,0.0444,0.0383,0.0333,0.0333,0.0224,0.0223,0.0222]}],[{"header":{"parameterUnit":"m.s-1","parameterCategory":2,"la1":30.2991,"la2":30.254,"lo1":-89.0895,"lo2":-89.0444,"dy":0.0017,"dx":0.0017,"nx":28,"ny":28,"refTime":"2024-07-22T21:00:00:Z","depth":"2","parameterNumber":2,"parameterNumberName":"U-component_of_CURRENTS"},"data":[0,0,0,0,0,0,0,0,0,0,0,0,0,0,0,0,0,0,0,0,0,0,0,0,0,0,0,0,0,0,0,0,0,0,0,0,0,0,0,0,0,0,0,0,0,0,0,0,0,0,0,0,0,0,0,0,0,0,0.2087,0.2088,0,0.2127,0.2127,0.2127,0.2112,0.2111,0.2111,0.211,0.2121,0.2122,0.2123,0,0,0,0,0,0,0,0,0,0,0,0,0,0.2072,0.2072,0.2087,0.2088,0.2089,0.2127,0.2127,0.2127,0.2112,0.2111,0.211,0.211,0.2121,0.2122,0.2123,0,0,0,0,0,0,0,0,0,0,0,0,0,0.2087,0.2072,0.2087,0.209,0.2091,0.2127,0.2127,0.2127,0.2112,0.2111,0.211,0.211,0.2121,0.2122,0.2123,0.2143,0,0,0.2126,0.2127,0,0,0,0,0,0,0,0,0.2086,0.2087,0.2088,0.209,0.2091,0.2118,0.2126,0.2133,0.2112,0.2099,0.211,0.2109,0.2121,0.2122,0.2124,0.2144,0.2144,0.2126,0.2127,0.2127,0.2128,0,0,0,0,0,0,0,0.2085,0.2086,0.2098,0.209,0.2091,0.2114,0.2114,0.2127,0.2109,0.21,0.21,0.2112,0.2121,0.2123,0.2125,0.2145,0.2126,0.2127,0.2128,0.2128,0.2193,0.2194,0,0,0,0,0,0,0.2087,0.2084,0.2097,0.21,0.2092,0.2115,0.2115,0.2106,0.2109,0.2111,0.2113,0.2111,0.2122,0.2123,0.2125,0.2174,0.2127,0.2128,0.2129,0.2192,0.2194,0.2195,0,0,0,0,0,0,0.2086,0.2087,0.2095,0.2098,0.2101,0.2116,0.2106,0.2107,0.212,0.2121,0.212,0.2127,0.2121,0.2123,0.2144,0.2173,0.2129,0.213,0.2191,0.2193,0.2194,0.2257,0,0,0,0,0,0,0.2085,0.2085,0.2096,0.2097,0.2101,0.2112,0.2107,0.2109,0.2131,0.2129,0.2133,0.2132,0.2121,0.2143,0.2145,0.2174,0.2131,0.219,0.2192,0.2194,0.2253,0.226,0.2266,0,0,0,0,0,0.2084,0.2089,0.2095,0.2098,0.2108,0.2113,0.2116,0.2122,0.2132,0.2133,0.2144,0.2133,0.2157,0.2145,0.2147,0.2177,0.2189,0.2191,0.2194,0.2251,0.2259,0.2266,0,0,0,0,0,0,0.209,0.2089,0.2095,0.2101,0.2109,0.2112,0.2126,0.2135,0.2146,0.2157,0.2149,0.2149,0.2185,0.2169,0.2156,0.2201,0.2171,0.2174,0.2213,0.2221,0.2227,0.2299,0.2131,0,0,0,0,0,0.2098,0.2095,0.2103,0.2108,0.2116,0.2128,0.214,0.2147,0.2155,0.216,0.2162,0.2173,0.2197,0.2198,0.2212,0.2233,0.2275,0.2253,0.2259,0.2265,0.2324,0.2425,0.2448,0.2203,0.2203,0.2203,0,0,0.2096,0.2103,0.2099,0.211,0.2119,0.2127,0.2131,0.2152,0.2183,0.2162,0.2199,0.2205,0.2211,0.224,0.2252,0.2228,0.2343,0.2268,0.2273,0.2331,0.2431,0.2455,0.2477,0.2204,0.2204,0.2204,0,0,0.2105,0.2103,0.2114,0.2112,0.214,0.2146,0.2156,0.2171,0.2204,0.2242,0.2244,0.2268,0.2285,0.2296,0.2307,0.2358,0.2386,0.2355,0.2437,0.2532,0.2554,0.2575,0.2609,0.2632,0.2344,0.2345,0.2345,0,0.2123,0.2107,0.2119,0.2128,0.214,0.2153,0.2173,0.2205,0.2229,0.2275,0.2261,0.2338,0.2321,0.239,0.2408,0.2377,0.2433,0.2402,0.2545,0.2567,0.2587,0.2617,0.2642,0.2348,0.2347,0.2347,0.2347,0,0.2133,0.2115,0.2117,0.2127,0.216,0.2156,0.2211,0.225,0.2293,0.2328,0.2425,0.2429,0.2468,0.2464,0.246,0.2585,0.2576,0.2553,0.2533,0.2616,0.2641,0.2666,0.2353,0.2351,0.235,0.235,0,0,0.2148,0.213,0.2119,0.214,0.215,0.2191,0.2252,0.2322,0.2399,0.244,0.253,0.2586,0.2604,0.2621,0.2615,0.271,0.2854,0.2712,0.2715,0.276,0.3061,0.2827,0.283,0.2883,0.2888,0.2893,0.3004,0,0.214,0.2145,0.2151,0.2173,0.2182,0.2226,0.2294,0.238,0.2453,0.2531,0.2592,0.2679,0.2657,0.2703,0.2784,0.2863,0.2935,0.2826,0.2965,0.2968,0.2763,0.2857,0.2607,0.2668,0.3028,0.3032,0.3035,0,0.2131,0.2134,0.2161,0.2216,0.2237,0.2287,0.2429,0.2492,0.2602,0.2664,0.2748,0.2794,0.292,0.2889,0.3087,0.3035,0.3068,0.312,0.3124,0.2921,0.2783,0.2653,0.27,0.3077,0.3074,0.307,0.3068,0,0.2146,0.2141,0.2178,0.218,0.2255,0.2343,0.2408,0.2542,0.2623,0.2769,0.2827,0.2966,0.3044,0.3165,0.3218,0.3205,0.3417,0.3375,0.3189,0.3169,0.2991,0.2945,0.3528,0.3527,0.3527,0.3527,0.3527,0,0.2124,0.2149,0.2197,0.222,0.2319,0.2392,0.2535,0.2619,0.2726,0.282,0.2903,0.2993,0.3146,0.3238,0.3284,0.3294,0.3451,0.325,0.3209,0.2991,0.2946,0.3334,0.331,0.3531,0.353,0.3529,0.3528,0,0.2149,0.2149,0.2204,0.2289,0.2333,0.2431,0.2571,0.2658,0.2772,0.2888,0.2946,0.3071,0.3208,0.3274,0.345,0.3348,0.3402,0.3347,0.3038,0.2958,0.3078,0.3056,0.3202,0.3195,0.319,0.3185,0.3181,0,0.2157,0.2181,0.2264,0.2304,0.2357,0.2479,0.2555,0.2677,0.2757,0.2928,0.2972,0.3124,0.3136,0.3218,0.3182,0.3174,0.3288,0.288,0.279,0.3113,0.306,0.3046,0.3032,0.2575,0.2566,0.2559,0.2554,0,0.2171,0.2213,0.2253,0.2334,0.2424,0.25,0.2616,0.2631,0.2775,0.2853,0.2906,0.2921,0.297,0.2825,0.2783,0.275,0.2861,0.2727,0.3225,0.2649,0.2518,0.2465,0.2474,0.2491,0.2497,0.2502,0.2505,0.2507,0.217,0.2204,0.2259,0.2333,0.2429,0.247,0.2461,0.2538,0.2583,0.2579,0.2702,0.2612,0.2606,0.2392,0.2309,0.2254,0.2463,0.2335,0.2361,0.2394,0.2255,0.2116,0.1986,0.1989,0.1992,0.1995,0.1997,0,0.2144,0.2188,0.224,0.2292,0.2349,0.2448,0.2463,0.2366,0.2304,0.2342,0.2304,0.2031,0.1902,0.1935,0.1744,0.1678,0.1717,0.1603,0.1662,0.1724,0.1779,0.1613,0.1173,0.117,0.1168,0.1166,0,0,0.2115,0.2138,0.2146,0.2179,0.2238,0.2202,0.2157,0.203,0.1974,0.1785,0.1719,0.1778,0.1835,0.1486,0.1421,0.1274,0.1495,0.1208,0.1868,0.2,0.2053,0.2194,0.2004,0,0,0,0,0]},{"header":{"parameterUnit":"m.s-1","parameterCategory":2,"la1":30.2991,"la2":30.254,"lo1":-89.0895,"lo2":-89.0444,"dy":0.0017,"dx":0.0017,"nx":28,"ny":28,"refTime":"2024-07-22T21:00:00:Z","depth":"2","parameterNumber":3,"parameterNumberName":"V-component_of_CURRENTS"},"data":[0,0,0,0,0,0,0,0,0,0,0,0,0,0,0,0,0,0,0,0,0,0,0,0,0,0,0,0,0,0,0,0,0,0,0,0,0,0,0,0,0,0,0,0,0,0,0,0,0,0,0,0,0,0,0,0,0,0,0.0016,0.0016,0,0.0015,0.0015,0.0015,0.0006,0.0006,0.0006,0.0005,-0.0017,-0.0018,-0.0018,0,0,0,0,0,0,0,0,0,0,0,0,0,0.0004,0.0005,0.0016,0.0016,0.0016,0.0015,0.0015,0.0015,0.0006,0.0006,0.0005,0.0005,-0.0017,-0.0018,-0.0018,0,0,0,0,0,0,0,0,0,0,0,0,0,0.0007,0.0005,0.0016,0.0012,0.0011,0.0015,0.0015,0.0015,0.0006,0.0006,0.0005,0.0005,-0.0017,-0.0017,-0.0018,-0.0015,0,0,-0.002,-0.002,0,0,0,0,0,0,0,0,0.0007,0.0007,0.0012,0.0012,0.0012,0.001,0.0002,0.0004,0.0006,0.0008,0.0005,0.0005,-0.001,-0.0011,-0.001,-0.0016,-0.0017,-0.002,-0.002,-0.0021,-0.0021,0,0,0,0,0,0,0,0.0007,0.0007,0.0016,0.0012,0.0012,0.0007,0.0007,0.0003,0.0001,0.0008,0.0007,0.0007,-0.001,-0.001,-0.0011,-0.0018,-0.002,-0.002,-0.0021,-0.0021,-0.0028,-0.0027,0,0,0,0,0,0,0.0008,0.0007,0.0016,0.0016,0.0008,0.0008,0.0008,0.0011,0.0001,-0.0,0.0007,0.0007,-0.0008,-0.001,-0.0012,-0.0012,-0.0021,-0.0021,-0.0021,-0.0028,-0.0028,-0.0027,0,0,0,0,0,0,0.0007,0.0009,0.0016,0.0011,0.0012,0.0008,0.0012,0.0011,0.0012,0.0001,-0.0001,0.0009,-0.0009,-0.0011,-0.0015,-0.0013,-0.0021,-0.0022,-0.0028,-0.0028,-0.0027,-0.0011,0,0,0,0,0,0,0.0007,0.0009,0.0011,0.0011,0.0012,0.0024,0.0012,0.0011,0.0012,0.0011,0.0001,-0.0001,-0.0009,-0.0014,-0.0016,-0.0014,-0.0022,-0.0028,-0.0028,-0.0028,-0.0012,-0.001,-0.0009,0,0,0,0,0,0.0007,0.0015,0.0012,0.0012,0.0016,0.0024,0.0024,0.002,0.0013,0.0019,0.0008,-0.0001,-0.0013,-0.0014,-0.0016,-0.0015,-0.0028,-0.0028,-0.0028,-0.0012,-0.001,-0.0009,0,0,0,0,0,0,0.0009,0.0014,0.0011,0.0019,0.0023,0.0023,0.0029,0.0022,0.0019,0.0015,0.0002,-0.0,-0.0005,-0.001,-0.0011,-0.0015,-0.0022,-0.0022,-0.001,-0.0008,-0.0007,0.0015,-0.0023,0,0,0,0,0,0.0011,0.0019,0.0022,0.0027,0.0033,0.003,0.0032,0.0027,0.0024,0.0023,0.0015,0.0005,-0.0004,-0.0006,-0.0014,-0.0013,0.0007,-0.0014,-0.0012,-0.0011,0.0006,0.006,0.0069,-0.0026,-0.0026,-0.0026,0,0,0.0015,0.0017,0.0022,0.0028,0.0033,0.0043,0.0031,0.0036,0.0035,0.002,0.002,0.001,-0.0004,-0.0006,-0.0008,-0.001,0.002,-0.0011,-0.0009,0.0007,0.0062,0.0071,0.008,-0.0026,-0.0026,-0.0026,0,0,0.0027,0.0029,0.0041,0.0049,0.0053,0.0051,0.0054,0.0055,0.0048,0.0044,0.003,0.0035,0.0013,0.0018,0.0012,0.0021,0.0024,0.0003,0.0031,0.0083,0.0092,0.01,0.0112,0.0121,0.0006,0.0006,0.0006,0,0.0028,0.0047,0.0045,0.006,0.0067,0.0057,0.0071,0.0064,0.0059,0.008,0.0045,0.0067,0.0032,0.0066,0.0038,0.0027,0.004,0.0024,0.0088,0.0096,0.0105,0.0114,0.0124,0.0007,0.0007,0.0007,0.0007,0,0.0054,0.0069,0.008,0.0094,0.0096,0.011,0.01,0.0116,0.0101,0.0107,0.0136,0.0107,0.0139,0.0103,0.0053,0.0095,0.0078,0.0082,0.0087,0.0116,0.0123,0.0133,0.0008,0.0008,0.0008,0.0008,0,0,0.0066,0.0093,0.0099,0.012,0.0117,0.0131,0.0139,0.0169,0.0224,0.0197,0.0274,0.0207,0.0224,0.0218,0.0184,0.0185,0.0203,0.0137,0.0139,0.0155,0.0289,0.0226,0.023,0.0218,0.0221,0.0223,0.0262,0,0.0092,0.0127,0.0128,0.0166,0.0186,0.0193,0.0222,0.0245,0.026,0.0334,0.0321,0.0366,0.0259,0.0283,0.027,0.023,0.0235,0.019,0.0254,0.0256,0.0203,0.0243,0.0249,0.0281,0.0272,0.0273,0.0274,0,0.0125,0.0143,0.0171,0.0234,0.0249,0.0265,0.0345,0.0371,0.0456,0.0484,0.0536,0.0541,0.0542,0.0456,0.0429,0.0404,0.0344,0.03,0.0302,0.0251,0.0213,0.0256,0.03,0.0291,0.029,0.0289,0.0288,0,0.0142,0.0189,0.021,0.0222,0.0275,0.0306,0.0347,0.0421,0.0496,0.0592,0.0677,0.0695,0.0726,0.0668,0.0529,0.0497,0.0497,0.047,0.0369,0.0363,0.0387,0.0379,0.0481,0.0481,0.0481,0.0481,0.0481,0,0.0172,0.0204,0.0225,0.0242,0.0331,0.0337,0.0454,0.0518,0.0636,0.0766,0.076,0.0864,0.0776,0.0758,0.0619,0.0514,0.0585,0.0388,0.0384,0.0386,0.0378,0.0406,0.0396,0.0483,0.0482,0.0482,0.0482,0,0.0189,0.0197,0.0249,0.0303,0.0336,0.0395,0.0535,0.0647,0.0725,0.0899,0.0942,0.101,0.098,0.0867,0.0779,0.0643,0.0542,0.0488,0.0463,0.0454,0.0351,0.0342,0.0418,0.0416,0.0415,0.0414,0.0413,0,0.0202,0.0215,0.0295,0.0358,0.0383,0.048,0.0587,0.069,0.082,0.0987,0.11,0.1123,0.1152,0.0987,0.0781,0.059,0.0551,0.0454,0.0394,0.0364,0.0352,0.0345,0.0338,0.0426,0.0425,0.0425,0.0424,0,0.024,0.0259,0.032,0.0432,0.053,0.0663,0.0807,0.093,0.1072,0.118,0.132,0.1337,0.1204,0.1022,0.075,0.0611,0.048,0.0434,0.0475,0.0419,0.037,0.0358,0.0352,0.0419,0.0419,0.042,0.042,0.042,0.0294,0.0367,0.0446,0.0556,0.0671,0.0837,0.095,0.1103,0.1277,0.1426,0.1443,0.1411,0.1239,0.0872,0.0667,0.044,0.0458,0.0352,0.0356,0.0361,0.0333,0.0282,0.0308,0.0307,0.0307,0.0307,0.0307,0,0.0391,0.0473,0.058,0.0725,0.0834,0.0876,0.1104,0.1204,0.1371,0.1447,0.1488,0.1263,0.1079,0.086,0.0528,0.0335,0.0329,0.0262,0.0305,0.0312,0.0318,0.0289,0.0252,0.0251,0.025,0.0249,0,0,0.0467,0.0596,0.0652,0.0834,0.0917,0.1069,0.1186,0.1317,0.1396,0.1429,0.1366,0.1329,0.1095,0.0833,0.0608,0.0427,0.0401,0.038,0.0446,0.0532,0.0539,0.0393,0.0359,0,0,0,0,0]}],[{"header":{"parameterUnit":"m.s-1","parameterCategory":2,"la1":30.2991,"la2":30.254,"lo1":-89.0895,"lo2":-89.0444,"dy":0.0017,"dx":0.0017,"nx":28,"ny":28,"refTime":"2024-07-22T21:00:00:Z","depth":"4","parameterNumber":2,"parameterNumberName":"U-component_of_CURRENTS"},"data":[0,0,0,0,0,0,0,0,0,0,0,0,0,0,0,0,0,0,0,0,0,0,0,0,0,0,0,0,0,0,0,0,0,0,0,0,0,0,0,0,0,0,0,0,0,0,0,0,0,0,0,0,0,0,0,0,0,0,0.1008,0.1008,0,0.1058,0.1059,0.1059,0.1093,0.1094,0.1094,0.1095,0.1124,0.1125,0.1125,0,0,0,0,0,0,0,0,0,0,0,0,0,0.0988,0.0988,0.1008,0.1008,0.1009,0.1058,0.1059,0.1059,0.1093,0.1094,0.1094,0.1095,0.1124,0.1125,0.1125,0,0,0,0,0,0,0,0,0,0,0,0,0,0.1011,0.0988,0.1007,0.1034,0.1037,0.1058,0.1059,0.1059,0.1093,0.1094,0.1095,0.1095,0.1124,0.1125,0.1125,0.1115,0,0,0.1127,0.1127,0,0,0,0,0,0,0,0,0.101,0.1011,0.1029,0.1032,0.1036,0.1072,0.1063,0.1078,0.1093,0.1069,0.1095,0.1096,0.1106,0.1108,0.1113,0.1116,0.1118,0.1127,0.1127,0.1127,0.1128,0,0,0,0,0,0,0,0.1008,0.101,0.1025,0.103,0.1034,0.106,0.1063,0.1066,0.1081,0.1072,0.1075,0.1084,0.1107,0.1113,0.1114,0.1118,0.1127,0.1127,0.1128,0.1128,0.1161,0.1162,0,0,0,0,0,0,0.1003,0.1008,0.1024,0.1027,0.1027,0.106,0.1063,0.1058,0.1082,0.1087,0.1083,0.1085,0.1111,0.1113,0.1115,0.1125,0.1127,0.1128,0.1128,0.1161,0.1162,0.1162,0,0,0,0,0,0,0.1002,0.1003,0.1022,0.1022,0.1026,0.1059,0.1053,0.1059,0.1092,0.1091,0.1096,0.1114,0.1112,0.1114,0.1129,0.1126,0.1128,0.1129,0.116,0.1161,0.1162,0.1132,0,0,0,0,0,0,0.1001,0.1002,0.1016,0.102,0.1026,0.1043,0.1053,0.1059,0.1096,0.11,0.1118,0.112,0.1113,0.1128,0.1129,0.1127,0.1129,0.116,0.1161,0.1162,0.1132,0.1131,0.1131,0,0,0,0,0,0.1,0.1007,0.1016,0.102,0.1037,0.1044,0.1049,0.1074,0.1097,0.1107,0.1119,0.1121,0.1136,0.1129,0.113,0.1127,0.1159,0.116,0.1162,0.1132,0.1131,0.1131,0,0,0,0,0,0,0.1005,0.1012,0.1022,0.1031,0.1043,0.1051,0.1074,0.109,0.111,0.1124,0.1124,0.1126,0.1145,0.1144,0.1136,0.1144,0.115,0.1152,0.1127,0.1126,0.1126,0.1139,0.113,0,0,0,0,0,0.1012,0.1019,0.1028,0.1037,0.1048,0.1068,0.1084,0.1098,0.1109,0.1121,0.113,0.1141,0.1147,0.1144,0.1157,0.1151,0.121,0.1154,0.1153,0.1153,0.1166,0.1267,0.1278,0.1166,0.1166,0.1166,0,0,0.1013,0.1023,0.1026,0.104,0.1056,0.1048,0.1079,0.1105,0.1098,0.1119,0.1126,0.1152,0.1153,0.1151,0.1157,0.1147,0.1214,0.1154,0.1153,0.1168,0.127,0.1281,0.1291,0.1167,0.1167,0.1167,0,0,0.1008,0.1031,0.1033,0.1037,0.1064,0.1066,0.1079,0.1098,0.1115,0.1121,0.114,0.1168,0.1164,0.1165,0.1162,0.1171,0.1223,0.1173,0.1158,0.1255,0.1265,0.1275,0.1358,0.1375,0.1153,0.1153,0.1153,0,0.1019,0.1,0.1036,0.1031,0.1028,0.1071,0.1055,0.1071,0.1092,0.1109,0.1122,0.1175,0.117,0.1181,0.1167,0.1169,0.1235,0.1152,0.1255,0.1266,0.1277,0.136,0.138,0.1151,0.1151,0.1152,0.1152,0,0.0991,0.0985,0.0987,0.0982,0.0992,0.0986,0.1004,0.1025,0.1055,0.1077,0.1134,0.1156,0.1201,0.1183,0.1162,0.1224,0.1252,0.1259,0.1256,0.1287,0.1371,0.1393,0.1149,0.115,0.115,0.1151,0,0,0.0982,0.0967,0.0968,0.0945,0.0959,0.0953,0.0962,0.0976,0.1018,0.1052,0.1114,0.1111,0.119,0.1195,0.121,0.125,0.1356,0.1271,0.1277,0.1352,0.1579,0.1389,0.1394,0.139,0.1394,0.1397,0.1606,0,0.0944,0.0894,0.0913,0.0866,0.0833,0.0874,0.0892,0.0926,0.0981,0.1059,0.1117,0.1196,0.1177,0.1234,0.1275,0.1347,0.1413,0.13,0.1541,0.1548,0.1374,0.1412,0.1408,0.1622,0.1627,0.163,0.1633,0,0.0904,0.0865,0.0809,0.0797,0.0799,0.0803,0.0852,0.0886,0.1005,0.1069,0.1173,0.1257,0.1338,0.134,0.1499,0.1435,0.1516,0.1559,0.1569,0.1419,0.1396,0.1589,0.1672,0.1669,0.1666,0.1664,0.1661,0,0.0826,0.0796,0.0741,0.0725,0.0731,0.075,0.0792,0.0897,0.0972,0.1124,0.1217,0.1339,0.1447,0.1553,0.1621,0.16,0.1793,0.1792,0.1707,0.1696,0.1822,0.1809,0.1945,0.1944,0.1944,0.1943,0.1943,0,0.0748,0.0702,0.0711,0.0658,0.0675,0.0721,0.0796,0.0868,0.1032,0.1135,0.1262,0.1365,0.1511,0.1622,0.1681,0.1733,0.1867,0.1719,0.1737,0.1801,0.1784,0.1837,0.1821,0.1951,0.1949,0.1948,0.1946,0,0.065,0.0654,0.0588,0.0591,0.063,0.0653,0.0805,0.0877,0.1039,0.119,0.1256,0.1437,0.1558,0.1663,0.1831,0.1802,0.1873,0.187,0.1926,0.1942,0.1712,0.1694,0.1831,0.1826,0.1822,0.1818,0.1815,0,0.0582,0.0531,0.0529,0.0572,0.0586,0.0656,0.0737,0.0879,0.0967,0.1202,0.1269,0.1447,0.1537,0.1651,0.1736,0.1846,0.1824,0.1869,0.178,0.1697,0.1703,0.169,0.1677,0.1808,0.1807,0.1806,0.1805,0,0.045,0.0465,0.0443,0.0502,0.0576,0.0633,0.0747,0.08,0.0976,0.112,0.1274,0.1367,0.1488,0.1579,0.1653,0.1722,0.1831,0.1825,0.1835,0.1752,0.1672,0.1678,0.1671,0.1791,0.1793,0.1794,0.1795,0,0.0395,0.0388,0.0405,0.0471,0.0558,0.0606,0.0648,0.0764,0.087,0.1117,0.1149,0.1328,0.147,0.1517,0.1582,0.1614,0.1614,0.159,0.1612,0.1629,0.1451,0.1312,0.1348,0,0,0,0,0,0.0346,0.0357,0.0396,0.0454,0.0519,0.0567,0.0677,0.0726,0.0864,0.095,0.1061,0.1166,0.1282,0.1369,0.1368,0.1466,0.1591,0.1455,0.1566,0.1709,0.1726,0.1526,0,0,0,0,0,0,0.0345,0.0348,0.0372,0.0428,0.047,0.0526,0.058,0.0662,0.072,0.088,0.0955,0.1093,0.1219,0.1282,0.1351,0.1372,0.1417,0.1562,0.1559,0.17,0.1715,0.1729,0.1528,0,0,0,0,0]},{"header":{"parameterUnit":"m.s-1","parameterCategory":2,"la1":30.2991,"la2":30.254,"lo1":-89.0895,"lo2":-89.0444,"dy":0.0017,"dx":0.0017,"nx":28,"ny":28,"refTime":"2024-07-22T21:00:00:Z","depth":"4","parameterNumber":3,"parameterNumberName":"V-component_of_CURRENTS"},"data":[0,0,0,0,0,0,0,0,0,0,0,0,0,0,0,0,0,0,0,0,0,0,0,0,0,0,0,0,0,0,0,0,0,0,0,0,0,0,0,0,0,0,0,0,0,0,0,0,0,0,0,0,0,0,0,0,0,0,0.0079,0.0079,0,0.008,0.008,0.008,0.0074,0.0074,0.0074,0.0073,0.0073,0.0073,0.0073,0,0,0,0,0,0,0,0,0,0,0,0,0,0.0067,0.0067,0.0079,0.0079,0.0079,0.008,0.008,0.008,0.0074,0.0074,0.0074,0.0073,0.0073,0.0073,0.0073,0,0,0,0,0,0,0,0,0,0,0,0,0,0.0071,0.0067,0.0079,0.0076,0.0075,0.008,0.008,0.008,0.0074,0.0074,0.0073,0.0073,0.0073,0.0073,0.0073,0.0082,0,0,0.0074,0.0074,0,0,0,0,0,0,0,0,0.0071,0.0072,0.0076,0.0076,0.0075,0.0076,0.0075,0.008,0.0074,0.0075,0.0073,0.0073,0.0073,0.0074,0.0076,0.0082,0.0082,0.0074,0.0074,0.0074,0.0074,0,0,0,0,0,0,0,0.007,0.0071,0.008,0.0076,0.0076,0.0072,0.0072,0.0076,0.0077,0.0075,0.0075,0.0074,0.0073,0.0075,0.0076,0.0082,0.0074,0.0074,0.0075,0.0075,0.0093,0.0094,0,0,0,0,0,0,0.007,0.0071,0.008,0.008,0.0071,0.0072,0.0073,0.0077,0.0077,0.0076,0.0074,0.0073,0.0075,0.0075,0.0075,0.0114,0.0074,0.0075,0.0075,0.0093,0.0093,0.0094,0,0,0,0,0,0,0.0069,0.0071,0.008,0.0075,0.0075,0.0073,0.0077,0.0077,0.0078,0.0076,0.0075,0.0076,0.0075,0.0075,0.0082,0.0113,0.0075,0.0075,0.0093,0.0093,0.0093,0.0173,0,0,0,0,0,0,0.0069,0.0071,0.0074,0.0075,0.0076,0.0088,0.0078,0.0077,0.0078,0.0077,0.0077,0.0077,0.0074,0.0081,0.0082,0.0113,0.0075,0.0092,0.0093,0.0093,0.017,0.0177,0.0182,0,0,0,0,0,0.0069,0.0077,0.0074,0.0075,0.008,0.0088,0.0089,0.0086,0.0078,0.0085,0.0082,0.0077,0.0085,0.0082,0.0083,0.0114,0.0092,0.0093,0.0093,0.0168,0.0175,0.0182,0,0,0,0,0,0,0.0074,0.0077,0.0074,0.0083,0.0086,0.0087,0.0093,0.0087,0.009,0.0088,0.0083,0.0083,0.0099,0.0088,0.0084,0.0117,0.0087,0.0088,0.0143,0.015,0.0156,0.0165,0.0076,0,0,0,0,0,0.0076,0.0082,0.0084,0.0091,0.0095,0.0093,0.0095,0.0092,0.0093,0.0094,0.0097,0.0095,0.0103,0.0111,0.0109,0.0131,0.0099,0.0148,0.0154,0.0159,0.0164,0.0122,0.0124,0.0096,0.0096,0.0096,0,0,0.0081,0.0081,0.0086,0.0092,0.0096,0.0121,0.0095,0.01,0.0128,0.0094,0.013,0.0114,0.0109,0.0135,0.0142,0.0132,0.0153,0.016,0.0165,0.0167,0.0123,0.0126,0.0128,0.0096,0.0096,0.0096,0,0,0.0098,0.0095,0.0111,0.0121,0.0125,0.0132,0.0134,0.0139,0.0149,0.0169,0.0156,0.0154,0.0168,0.0176,0.0181,0.0213,0.0179,0.0212,0.0262,0.0221,0.0223,0.0224,0.0203,0.0202,0.0223,0.0223,0.0223,0,0.0103,0.0131,0.0116,0.0141,0.0164,0.0143,0.0181,0.019,0.0196,0.0205,0.0189,0.0194,0.0192,0.0224,0.0242,0.0231,0.02,0.0243,0.0229,0.023,0.023,0.0207,0.0205,0.0227,0.0226,0.0226,0.0226,0,0.0141,0.0169,0.0182,0.0214,0.0232,0.0258,0.0273,0.0285,0.0286,0.0284,0.0297,0.0281,0.0282,0.0286,0.0283,0.0293,0.027,0.0237,0.0216,0.0238,0.0212,0.0209,0.0232,0.0231,0.023,0.0229,0,0,0.0148,0.0201,0.0209,0.0248,0.0279,0.03,0.0344,0.0376,0.0392,0.0386,0.0405,0.0417,0.0379,0.0381,0.0364,0.0341,0.0329,0.03,0.0296,0.0288,0.0248,0.0237,0.0231,0.0288,0.0287,0.0287,0.0236,0,0.0192,0.0264,0.0277,0.0359,0.0407,0.0412,0.0458,0.0473,0.0467,0.0472,0.0446,0.0452,0.0427,0.0423,0.0396,0.0336,0.032,0.0347,0.022,0.0217,0.0211,0.0226,0.0285,0.0233,0.0232,0.0231,0.023,0,0.0236,0.0284,0.0374,0.045,0.047,0.0515,0.0567,0.0599,0.059,0.0575,0.0553,0.0514,0.05,0.046,0.0377,0.0391,0.0336,0.0285,0.028,0.0238,0.0198,0.0199,0.0223,0.0223,0.0224,0.0224,0.0225,0,0.0271,0.0355,0.0436,0.0465,0.0539,0.0585,0.0625,0.0634,0.0659,0.0638,0.0626,0.0576,0.0555,0.047,0.0373,0.0371,0.0258,0.0237,0.0179,0.0178,0.0168,0.0167,0.0179,0.018,0.018,0.018,0.018,0,0.0322,0.0385,0.0464,0.0514,0.0602,0.0638,0.0703,0.0718,0.0729,0.0739,0.0687,0.0667,0.0552,0.0472,0.0381,0.0268,0.0262,0.0194,0.0162,0.0205,0.0208,0.0166,0.0166,0.0178,0.0178,0.0179,0.0179,0,0.0347,0.0398,0.0491,0.059,0.0627,0.0689,0.0772,0.0798,0.0806,0.0814,0.0815,0.074,0.0629,0.0509,0.036,0.0286,0.0172,0.0137,0.0206,0.0178,0.0123,0.0127,0.0075,0.0074,0.0073,0.0073,0.0072,0,0.0365,0.0422,0.0543,0.0594,0.0648,0.0738,0.0791,0.0836,0.086,0.0848,0.0853,0.0765,0.0692,0.0485,0.0351,0.0176,0.0153,0.0103,0.011,0.0137,0.0111,0.0116,0.0121,0.0071,0.0071,0.0071,0.007,0,0.0399,0.0442,0.0517,0.0621,0.07,0.0776,0.0863,0.0888,0.0916,0.0923,0.0875,0.0769,0.0644,0.048,0.0345,0.0218,0.0134,0.0095,0.0096,0.0102,0.0131,0.0108,0.0113,0.0068,0.0068,0.0068,0.0069,0,0.041,0.0463,0.0552,0.0642,0.0728,0.0797,0.0843,0.0884,0.0916,0.0916,0.089,0.076,0.0689,0.0501,0.037,0.0247,0.0221,0.0185,0.0181,0.0182,0.0223,0.0277,0.0237,0,0,0,0,0,0.0419,0.048,0.0563,0.0655,0.0732,0.0784,0.0877,0.0909,0.094,0.0913,0.091,0.0791,0.0598,0.0515,0.039,0.035,0.0193,0.02,0.0149,0.0054,0.0057,0.0084,0,0,0,0,0,0,0.0425,0.0503,0.0558,0.064,0.0697,0.0779,0.0841,0.0866,0.0862,0.0874,0.0777,0.0748,0.0564,0.0656,0.0377,0.0342,0.0292,0.0119,0.0116,0.0052,0.0055,0.0057,0.0086,0,0,0,0,0]}]]